User: anonymous   Login
Location: Jetmore Oil Field
(38.1181°N, 99.9337°W)
Time: 06:26:16
(UTC+00:00)
Language:

STARLINK-2737 - Orbit

View from above orbital plane
View from above orbital plane
View from above satellite
View from above satellite

Ground track
Ground track

The orbit data is extracted from the following two-line orbital elements,

1 48675C 21044AP  21267.85519520  .00001396  00000-0  93533-4 0  2678
2 48675  53.0547 214.7474 0001722  66.7882 317.8630 15.06399800    14
Epoch (UTC): 24 September 2021 20:31:28
Eccentricity: 0.0001722
inclination: 53.0547°
perigee height: 546 km
apogee height: 548 km
right ascension of ascending node: 214.7474°
argument of perigee: 66.7882°
revolutions per day: 15.06399800
mean anomaly at epoch: 317.8630°
orbit number at epoch: 1

The dashed part of the orbit path shows where the satellite is in the earth's shadow,  

DLR